User: anonymous   Login
Location: D�derode
(51.8092°N, 10.1065°E)
Time: 23:56:42
(UTC+00:00)
Language:

Cosmos 1782 - Orbit

View from above orbital plane
View from above orbital plane
View from above satellite
View from above satellite

Ground track
Ground track

The orbit data is extracted from the following two-line orbital elements,

1 16986U 86074A   21061.74987447  .00000065  00000-0  23189-5 0  9994
2 16986  82.5033 242.5656 0012160  43.1636 317.0543 15.07461187874862
Epoch (UTC): 02 March 2021 17:59:49
Eccentricity: 0.0012160
inclination: 82.5033°
perigee height: 535 km
apogee height: 552 km
right ascension of ascending node: 242.5656°
argument of perigee: 43.1636°
revolutions per day: 15.07461187
mean anomaly at epoch: 317.0543°
orbit number at epoch: 87486

The dashed part of the orbit path shows where the satellite is in the earth's shadow,  

DLR